CHINASAT 5 (SPACENET 1)

导读

CHINASAT 5,又名SPACENET 1,是1984年5月23日由中国发射的通信卫星,国际标识为1984-049A,定位于地球轨道。作为中国早期自研通信卫星,它承担广播电视传输与数据通信业务,信号覆盖中国及周边区域,搭载多波段转发器提供通信服务。截至2026年,该卫星已在轨超41年,是中国通信卫星发展历程中的早期标志性节点,见证了中国航天从试验到实用通信服务的探索进程。

基本信息
目录编号:
14985
目录名称:
CHINASAT 5 (SPACENET 1)
国际标识:
1984-049A
轨道中心:
EARTH
卫星名称:
CHINASAT 5 (SPACENET 1)
卫星全名:
--
卫星状态:
在轨 (已飞行15451 天)
发射日期:
1984-05-23 UTC
国别 :
中国 (CN)
星等 :
--
该卫星已列入 空间交会检测服务 Space Conjunction Data Service (SCDS) ,当前飞行风险评估等级: 无高风险
轨道信息
数据来源 国际轨道数据
星历时间: 2026-09-10T22:43:56+0800
1天前
查看轨道信息
半长轴: 42245.349km
偏心率: 0.0012086
轨道倾角: 14.319°
近地点辐角 237.568°
升交点赤经 347.658°
平近点角 93.359°
近地点: 35816.154km
远地点: 35918.27km
周期: 1440.217分钟
每日圈数: 0.999849
详细信息
使用方式:
暂无
2D轨道图
3D轨道图
轨道高度分析图
轨道倾角分析图
轨道综合分析图
查看轨道综合分析图
与全量物体交会距离演化趋势
与全量物体交会风险概率演化趋势